| time (UTC) | temp C | wind direction | speed KPH | gust KPH | rain 1hr cm | rain 24hr cm | rain mn cm | humidity % | barometer mb |
| 20260510211043 | 6 | 50 | 0.0 | 4.8 | 0.00 | 0.00 | 0.00 | 70 | 1012.8 |
| 20260510210540 | 6 | 65 | 1.6 | 4.8 | 0.00 | 0.00 | 0.00 | 70 | 1012.8 |
| 20260510210049 | 6 | 96 | 0.0 | 3.2 | 0.00 | 0.00 | 0.00 | 69 | 1012.9 |
| 20260510205540 | 6 | 105 | 0.0 | 3.2 | 0.00 | 0.00 | 0.00 | 69 | 1012.8 |
| 20260510205039 | 6 | 55 | 0.0 | 3.2 | 0.00 | 0.00 | 0.00 | 69 | 1012.9 |
| 20260510204551 | 7 | 55 | 1.6 | 4.8 | 0.00 | 0.00 | 0.00 | 69 | 1012.9 |
| 20260510204037 | 7 | 34 | 1.6 | 4.8 | 0.00 | 0.00 | 0.00 | 68 | 1012.9 |
| 20260510203537 | 7 | 47 | 1.6 | 4.8 | 0.00 | 0.00 | 0.00 | 68 | 1012.9 |
| 20260510203038 | 7 | 71 | 1.6 | 6.4 | 0.00 | 0.00 | 0.00 | 68 | 1013.0 |
| 20260510202535 | 7 | 49 | 0.0 | 6.4 | 0.00 | 0.00 | 0.00 | 67 | 1013.0 |
| 20260510202035 | 7 | 54 | 1.6 | 6.4 | 0.00 | 0.00 | 0.00 | 67 | 1012.9 |
| 20260510201539 | 7 | 67 | 1.6 | 9.7 | 0.00 | 0.00 | 0.00 | 67 | 1012.9 |
| 20260510201035 | 7 | 39 | 3.2 | 9.7 | 0.00 | 0.00 | 0.00 | 66 | 1013.0 |
| 20260510200532 | 7 | 55 | 3.2 | 8.0 | 0.00 | 0.00 | 0.00 | 66 | 1013.0 |
| 20260510200031 | 8 | 52 | 3.2 | 8.0 | 0.00 | 0.00 | 0.00 | 66 | 1013.0 |
| 20260510195531 | 8 | 71 | 3.2 | 12.9 | 0.00 | 0.00 | 0.00 | 65 | 1013.0 |
| 20260510195030 | 8 | 90 | 4.8 | 12.9 | 0.00 | 0.00 | 0.00 | 65 | 1013.0 |
| 20260510194533 | 8 | 35 | 3.2 | 9.7 | 0.00 | 0.00 | 0.00 | 65 | 1013.0 |
| 20260510194030 | 8 | 43 | 6.4 | 11.3 | 0.00 | 0.00 | 0.00 | 64 | 1013.0 |
| 20260510193531 | 8 | 80 | 4.8 | 11.3 | 0.00 | 0.00 | 0.00 | 64 | 1013.0 |
| 20260510193030 | 8 | 78 | 4.8 | 16.1 | 0.00 | 0.00 | 0.00 | 63 | 1013.0 |
| 20260510192529 | 8 | 59 | 6.4 | 19.3 | 0.00 | 0.00 | 0.00 | 63 | 1012.9 |
| 20260510192032 | 8 | 130 | 6.4 | 19.3 | 0.00 | 0.00 | 0.00 | 62 | 1013.0 |
| 20260510191532 | 9 | 62 | 6.4 | 16.1 | 0.00 | 0.00 | 0.00 | 62 | 1013.0 |
| 20260510191029 | 9 | 108 | 4.8 | 16.1 | 0.00 | 0.00 | 0.00 | 61 | 1013.1 |
| 20260510190528 | 9 | 58 | 4.8 | 20.9 | 0.00 | 0.00 | 0.00 | 61 | 1013.1 |
| 20260510190031 | 9 | 52 | 9.7 | 20.9 | 0.00 | 0.00 | 0.00 | 61 | 1013.0 |
| 20260510185527 | 10 | 55 | 4.8 | 14.5 | 0.00 | 0.00 | 0.00 | 61 | 1013.0 |
| 20260510185027 | 10 | 55 | 3.2 | 16.1 | 0.00 | 0.00 | 0.00 | 60 | 1013.1 |
| 20260510184533 | 10 | 36 | 6.4 | 16.1 | 0.00 | 0.00 | 0.00 | 60 | 1013.1 |
| 20260510184027 | 10 | 58 | 6.4 | 11.3 | 0.00 | 0.00 | 0.00 | 60 | 1013.0 |
| 20260510183527 | 10 | 62 | 3.2 | 12.9 | 0.00 | 0.00 | 0.00 | 60 | 1013.0 |
| 20260510183026 | 10 | 82 | 4.8 | 12.9 | 0.00 | 0.00 | 0.00 | 60 | 1013.0 |
| 20260510182526 | 10 | 105 | 4.8 | 12.9 | 0.00 | 0.00 | 0.00 | 59 | 1013.1 |
| 20260510182026 | 10 | 50 | 4.8 | 12.9 | 0.00 | 0.00 | 0.00 | 59 | 1013.1 |
| 20260510181557 | 10 | 84 | 3.2 | 14.5 | 0.00 | 0.00 | 0.00 | 58 | 1013.1 |
| 20260510181026 | 10 | 41 | 6.4 | 19.3 | 0.00 | 0.00 | 0.00 | 58 | 1013.0 |
| 20260510180525 | 10 | 130 | 8.0 | 19.3 | 0.00 | 0.00 | 0.00 | 58 | 1013.1 |
| 20260510180035 | 10 | 44 | 6.4 | 19.3 | 0.00 | 0.00 | 0.00 | 57 | 1013.1 |
| 20260510175524 | 10 | 42 | 4.8 | 19.3 | 0.00 | 0.00 | 0.00 | 58 | 1013.1 |
| 20260510175024 | 10 | 71 | 4.8 | 16.1 | 0.00 | 0.00 | 0.00 | 58 | 1013.1 |
| 20260510174533 | 10 | 46 | 4.8 | 17.7 | 0.00 | 0.00 | 0.00 | 57 | 1013.1 |
| 20260510174024 | 10 | 47 | 6.4 | 19.3 | 0.00 | 0.00 | 0.00 | 58 | 1013.2 |
| 20260510173524 | 11 | 40 | 11.3 | 19.3 | 0.00 | 0.00 | 0.00 | 57 | 1013.3 |
| 20260510173023 | 11 | 153 | 9.7 | 19.3 | 0.00 | 0.00 | 0.00 | 56 | 1013.2 |
| 20260510172524 | 11 | 5 | 6.4 | 20.9 | 0.00 | 0.00 | 0.00 | 55 | 1013.3 |
| 20260510172024 | 11 | 44 | 4.8 | 22.5 | 0.00 | 0.00 | 0.00 | 54 | 1013.3 |
| 20260510171523 | 12 | 62 | 8.0 | 22.5 | 0.00 | 0.00 | 0.00 | 53 | 1013.3 |
| 20260510171022 | 12 | 84 | 11.3 | 25.7 | 0.00 | 0.00 | 0.00 | 53 | 1013.3 |
| 20260510170523 | 11 | 71 | 6.4 | 19.3 | 0.00 | 0.00 | 0.00 | 53 | 1013.2 |
| 20260510170021 | 11 | 29 | 8.0 | 16.1 | 0.00 | 0.00 | 0.00 | 52 | 1013.4 |
| 20260510165520 | 11 | 51 | 3.2 | 17.7 | 0.00 | 0.00 | 0.00 | 55 | 1013.4 |
| 20260510165019 | 11 | 55 | 9.7 | 22.5 | 0.00 | 0.00 | 0.00 | 54 | 1013.5 |
| 20260510164522 | 11 | 95 | 8.0 | 20.9 | 0.00 | 0.00 | 0.00 | 54 | 1013.5 |
| 20260510164017 | 11 | 59 | 4.8 | 17.7 | 0.00 | 0.00 | 0.00 | 54 | 1013.6 |
| 20260510163518 | 12 | 38 | 8.0 | 17.7 | 0.00 | 0.00 | 0.00 | 53 | 1013.6 |
| 20260510163017 | 12 | 46 | 8.0 | 17.7 | 0.00 | 0.00 | 0.00 | 53 | 1013.7 |
| 20260510162516 | 12 | 40 | 4.8 | 30.6 | 0.00 | 0.00 | 0.00 | 54 | 1013.8 |
| 20260510162018 | 12 | 47 | 11.3 | 30.6 | 0.00 | 0.00 | 0.00 | 53 | 1013.7 |
| 20260510161516 | 12 | 43 | 6.4 | 14.5 | 0.00 | 0.00 | 0.00 | 52 | 1013.8 |
| 20260510161016 | 12 | 46 | 8.0 | 20.9 | 0.00 | 0.00 | 0.00 | 51 | 1013.8 |
| 20260510160515 | 12 | 40 | 9.7 | 22.5 | 0.00 | 0.00 | 0.00 | 50 | 1014.0 |
| 20260510160020 | 12 | 78 | 9.7 | 22.5 | 0.00 | 0.00 | 0.00 | 53 | 1014.1 |
| 20260510155515 | 12 | 72 | 9.7 | 19.3 | 0.00 | 0.00 | 0.00 | 53 | 1014.0 |
| 20260510155014 | 12 | 44 | 4.8 | 16.1 | 0.00 | 0.00 | 0.00 | 52 | 1014.0 |
| 20260510154513 | 12 | 65 | 8.0 | 22.5 | 0.00 | 0.00 | 0.00 | 52 | 1014.1 |
| 20260510154013 | 12 | 50 | 6.4 | 22.5 | 0.00 | 0.00 | 0.00 | 52 | 1014.1 |
| 20260510153512 | 12 | 55 | 6.4 | 19.3 | 0.00 | 0.00 | 0.00 | 54 | 1014.1 |
| 20260510153011 | 12 | 33 | 4.8 | 17.7 | 0.00 | 0.00 | 0.00 | 55 | 1014.2 |
| 20260510152511 | 12 | 40 | 4.8 | 19.3 | 0.00 | 0.00 | 0.00 | 54 | 1014.2 |
| 20260510152011 | 12 | 25 | 8.0 | 25.7 | 0.00 | 0.00 | 0.00 | 52 | 1014.4 |
| 20260510151510 | 12 | 30 | 9.7 | 25.7 | 0.00 | 0.00 | 0.00 | 55 | 1014.4 |
| 20260510151013 | 12 | 61 | 8.0 | 22.5 | 0.00 | 0.00 | 0.00 | 54 | 1014.3 |
| 20260510150509 | 12 | 29 | 8.0 | 20.9 | 0.00 | 0.00 | 0.00 | 54 | 1014.4 |
| 20260510150009 | 12 | 79 | 8.0 | 22.5 | 0.00 | 0.00 | 0.00 | 55 | 1014.5 |
| 20260510145510 | 12 | 54 | 9.7 | 20.9 | 0.00 | 0.00 | 0.00 | 54 | 1014.5 |
| 20260510145007 | 12 | 47 | 8.0 | 20.9 | 0.00 | 0.00 | 0.00 | 55 | 1014.5 |
| 20260510144509 | 12 | 90 | 4.8 | 22.5 | 0.00 | 0.00 | 0.00 | 56 | 1014.6 |
| 20260510144007 | 12 | 57 | 8.0 | 22.5 | 0.00 | 0.00 | 0.00 | 56 | 1014.7 |
| 20260510143507 | 12 | 42 | 6.4 | 22.5 | 0.00 | 0.00 | 0.00 | 60 | 1014.7 |
| 20260510143009 | 12 | 65 | 8.0 | 24.1 | 0.00 | 0.00 | 0.00 | 58 | 1014.7 |
| 20260510142508 | 12 | 53 | 8.0 | 24.1 | 0.00 | 0.00 | 0.00 | 58 | 1014.8 |
| 20260510142006 | 12 | 31 | 8.0 | 24.1 | 0.00 | 0.00 | 0.00 | 58 | 1014.9 |
| 20260510141505 | 12 | 49 | 8.0 | 24.1 | 0.00 | 0.00 | 0.00 | 58 | 1014.8 |
| 20260510141005 | 12 | 61 | 8.0 | 19.3 | 0.00 | 0.00 | 0.00 | 58 | 1014.7 |
| 20260510140503 | 11 | 52 | 8.0 | 20.9 | 0.00 | 0.00 | 0.00 | 60 | 1014.9 |
| 20260510140004 | 12 | 37 | 11.3 | 22.5 | 0.00 | 0.00 | 0.00 | 58 | 1015.0 |
| 20260510135503 | 12 | 26 | 9.7 | 22.5 | 0.00 | 0.00 | 0.00 | 60 | 1015.0 |
| 20260510135002 | 11 | 44 | 11.3 | 22.5 | 0.00 | 0.00 | 0.00 | 60 | 1015.0 |
| 20260510134502 | 11 | 118 | 6.4 | 24.1 | 0.00 | 0.00 | 0.00 | 60 | 1015.1 |
| 20260510134002 | 12 | 78 | 11.3 | 24.1 | 0.00 | 0.00 | 0.00 | 60 | 1015.1 |
| 20260510133502 | 11 | 348 | 8.0 | 19.3 | 0.00 | 0.00 | 0.00 | 60 | 1015.1 |
| 20260510133001 | 11 | 85 | 8.0 | 19.3 | 0.00 | 0.00 | 0.00 | 61 | 1015.2 |
| 20260510132601 | 11 | 42 | 9.7 | 19.3 | 0.00 | 0.00 | 0.00 | 60 | 1015.3 |
| 20260510132100 | 11 | 54 | 8.0 | 19.3 | 0.00 | 0.00 | 0.00 | 61 | 1015.3 |
| 20260510131600 | 12 | 32 | 8.0 | 27.4 | 0.00 | 0.00 | 0.00 | 61 | 1015.2 |
| 20260510131100 | 12 | 66 | 8.0 | 27.4 | 0.00 | 0.00 | 0.00 | 62 | 1015.2 |
| 20260510130559 | 12 | 9 | 9.7 | 20.9 | 0.00 | 0.00 | 0.00 | 60 | 1015.2 |
| 20260510130101 | 11 | 59 | 9.7 | 20.9 | 0.00 | 0.00 | 0.00 | 61 | 1015.3 |
| 20260510125557 | 12 | 38 | 12.9 | 20.9 | 0.00 | 0.00 | 0.00 | 60 | 1015.4 |
| 20260510125057 | 12 | 63 | 4.8 | 16.1 | 0.00 | 0.00 | 0.00 | 62 | 1015.3 |
| 20260510124557 | 12 | 51 | 6.4 | 17.7 | 0.00 | 0.00 | 0.00 | 61 | 1015.4 |
| 20260510124055 | 11 | 35 | 6.4 | 24.1 | 0.00 | 0.00 | 0.00 | 62 | 1015.5 |
| 20260510123555 | 11 | 42 | 8.0 | 24.1 | 0.00 | 0.00 | 0.00 | 61 | 1015.7 |
| 20260510123054 | 11 | 22 | 8.0 | 22.5 | 0.00 | 0.00 | 0.00 | 62 | 1015.7 |
| 20260510122552 | 11 | 14 | 9.7 | 22.5 | 0.00 | 0.00 | 0.00 | 63 | 1015.7 |
| 20260510122051 | 11 | 94 | 4.8 | 19.3 | 0.00 | 0.00 | 0.00 | 66 | 1015.9 |
| 20260510121550 | 10 | 39 | 9.7 | 24.1 | 0.00 | 0.00 | 0.00 | 64 | 1016.0 |
| 20260510121051 | 11 | 42 | 11.3 | 22.5 | 0.00 | 0.00 | 0.00 | 65 | 1016.0 |
| 20260510120548 | 10 | 51 | 8.0 | 25.7 | 0.00 | 0.00 | 0.00 | 65 | 1015.9 |
| 20260510120047 | 10 | 42 | 3.2 | 25.7 | 0.00 | 0.00 | 0.00 | 66 | 1016.0 |
| 20260510115547 | 10 | 52 | 8.0 | 24.1 | 0.00 | 0.00 | 0.00 | 66 | 1016.0 |
| 20260510115046 | 10 | 44 | 11.3 | 20.9 | 0.00 | 0.00 | 0.00 | 67 | 1016.1 |
| 20260510114551 | 10 | 36 | 9.7 | 20.9 | 0.00 | 0.00 | 0.00 | 67 | 1016.2 |
| 20260510114044 | 10 | 67 | 9.7 | 19.3 | 0.00 | 0.00 | 0.00 | 68 | 1016.3 |
| 20260510113544 | 10 | 40 | 8.0 | 25.7 | 0.00 | 0.00 | 0.00 | 68 | 1016.3 |
| 20260510113045 | 10 | 32 | 4.8 | 17.7 | 0.00 | 0.00 | 0.00 | 69 | 1016.3 |
| 20260510112542 | 10 | 38 | 4.8 | 20.9 | 0.00 | 0.00 | 0.00 | 70 | 1016.4 |
| 20260510112045 | 10 | 104 | 9.7 | 20.9 | 0.00 | 0.00 | 0.00 | 70 | 1016.5 |
| 20260510111542 | 10 | 290 | 9.7 | 25.7 | 0.00 | 0.00 | 0.00 | 70 | 1016.4 |
| 20260510111042 | 10 | 99 | 9.7 | 25.7 | 0.00 | 0.00 | 0.00 | 70 | 1016.5 |
| 20260510110540 | 10 | 59 | 9.7 | 22.5 | 0.00 | 0.00 | 0.00 | 72 | 1016.5 |
| 20260510110039 | 10 | 31 | 9.7 | 24.1 | 0.00 | 0.00 | 0.00 | 72 | 1016.5 |
| 20260510105539 | 10 | 68 | 9.7 | 24.1 | 0.00 | 0.00 | 0.00 | 72 | 1016.7 |
| 20260510105039 | 10 | 28 | 9.7 | 24.1 | 0.00 | 0.00 | 0.00 | 72 | 1016.6 |
| 20260510104540 | 10 | 70 | 11.3 | 22.5 | 0.00 | 0.00 | 0.00 | 73 | 1016.6 |
| 20260510104040 | 10 | 36 | 8.0 | 20.9 | 0.00 | 0.00 | 0.00 | 73 | 1016.7 |
| 20260510103537 | 10 | 65 | 11.3 | 20.9 | 0.00 | 0.00 | 0.00 | 73 | 1016.6 |
| 20260510103043 | 10 | 42 | 11.3 | 20.9 | 0.00 | 0.00 | 0.00 | 73 | 1016.7 |
| 20260510102537 | 10 | 67 | 8.0 | 25.7 | 0.00 | 0.00 | 0.00 | 74 | 1016.7 |
| 20260510102037 | 10 | 48 | 6.4 | 22.5 | 0.00 | 0.00 | 0.00 | 75 | 1016.7 |
| 20260510101537 | 10 | 68 | 12.9 | 25.7 | 0.00 | 0.00 | 0.00 | 74 | 1016.7 |
| 20260510101036 | 10 | 39 | 9.7 | 27.4 | 0.00 | 0.00 | 0.00 | 76 | 1016.7 |
| 20260510100537 | 9 | 55 | 9.7 | 27.4 | 0.00 | 0.00 | 0.00 | 75 | 1016.8 |
| 20260510100047 | 10 | 239 | 11.3 | 25.7 | 0.00 | 0.00 | 0.00 | 74 | 1016.8 |
| 20260510095535 | 10 | 79 | 8.0 | 17.7 | 0.00 | 0.00 | 0.00 | 75 | 1016.8 |
| 20260510095036 | 10 | 38 | 6.4 | 22.5 | 0.00 | 0.00 | 0.00 | 75 | 1016.8 |
| 20260510094534 | 10 | 52 | 11.3 | 22.5 | 0.00 | 0.00 | 0.00 | 74 | 1016.8 |
| 20260510094033 | 10 | 30 | 6.4 | 17.7 | 0.00 | 0.00 | 0.00 | 75 | 1016.8 |
| 20260510093532 | 10 | 69 | 6.4 | 19.3 | 0.00 | 0.00 | 0.00 | 75 | 1016.7 |
| 20260510093042 | 10 | 128 | 8.0 | 19.3 | 0.00 | 0.00 | 0.00 | 75 | 1016.8 |
| 20260510092532 | 9 | 52 | 8.0 | 20.9 | 0.00 | 0.00 | 0.00 | 76 | 1016.8 |
| 20260510092032 | 9 | 114 | 9.7 | 20.9 | 0.00 | 0.00 | 0.00 | 76 | 1016.9 |
| 20260510091536 | 9 | 77 | 11.3 | 19.3 | 0.00 | 0.00 | 0.00 | 76 | 1017.0 |
| 20260510091031 | 9 | 38 | 9.7 | 20.9 | 0.00 | 0.00 | 0.00 | 76 | 1017.0 |
| 20260510090528 | 9 | 59 | 9.7 | 20.9 | 0.00 | 0.00 | 0.00 | 76 | 1017.0 |
| 20260510090031 | 9 | 86 | 6.4 | 22.5 | 0.00 | 0.00 | 0.00 | 77 | 1017.2 |
| 20260510085527 | 8 | 52 | 6.4 | 17.7 | 0.00 | 0.00 | 0.00 | 77 | 1017.1 |
| 20260510085027 | 8 | 60 | 6.4 | 17.7 | 0.00 | 0.00 | 0.00 | 78 | 1017.2 |
| 20260510084532 | 8 | 46 | 8.0 | 19.3 | 0.00 | 0.00 | 0.00 | 79 | 1017.2 |
| 20260510084026 | 8 | 30 | 6.4 | 17.7 | 0.00 | 0.00 | 0.00 | 79 | 1017.2 |
| 20260510083528 | 8 | 77 | 8.0 | 20.9 | 0.00 | 0.00 | 0.00 | 80 | 1017.2 |
| 20260510083023 | 8 | 47 | 8.0 | 20.9 | 0.00 | 0.00 | 0.00 | 80 | 1017.3 |
| 20260510082523 | 8 | 39 | 8.0 | 20.9 | 0.00 | 0.00 | 0.00 | 80 | 1017.3 |
| 20260510082021 | 8 | 13 | 9.7 | 17.7 | 0.00 | 0.00 | 0.00 | 81 | 1017.3 |
| 20260510081525 | 8 | 66 | 6.4 | 20.9 | 0.00 | 0.00 | 0.00 | 81 | 1017.3 |
| 20260510081020 | 8 | 44 | 12.9 | 20.9 | 0.00 | 0.00 | 0.00 | 81 | 1017.3 |
| 20260510080519 | 8 | 51 | 6.4 | 20.9 | 0.00 | 0.00 | 0.00 | 82 | 1017.3 |
| 20260510080020 | 8 | 44 | 8.0 | 20.9 | 0.00 | 0.00 | 0.00 | 82 | 1017.3 |
| 20260510075519 | 8 | 67 | 8.0 | 17.7 | 0.00 | 0.00 | 0.00 | 82 | 1017.3 |
| 20260510075022 | 8 | 52 | 9.7 | 17.7 | 0.00 | 0.00 | 0.00 | 82 | 1017.3 |
| 20260510074518 | 8 | 42 | 4.8 | 16.1 | 0.00 | 0.00 | 0.00 | 83 | 1017.2 |
| 20260510074018 | 8 | 74 | 4.8 | 22.5 | 0.00 | 0.00 | 0.00 | 83 | 1017.2 |
| 20260510073518 | 8 | 43 | 8.0 | 22.5 | 0.00 | 0.00 | 0.00 | 83 | 1017.2 |
| 20260510073016 | 8 | 63 | 8.0 | 24.1 | 0.00 | 0.00 | 0.00 | 83 | 1017.1 |
| 20260510072515 | 8 | 66 | 11.3 | 24.1 | 0.00 | 0.00 | 0.00 | 83 | 1017.1 |
| 20260510072018 | 8 | 51 | 8.0 | 22.5 | 0.00 | 0.00 | 0.00 | 83 | 1017.1 |
| 20260510071519 | 8 | 46 | 9.7 | 20.9 | 0.00 | 0.00 | 0.00 | 83 | 1017.1 |
| 20260510071014 | 8 | 71 | 8.0 | 20.9 | 0.00 | 0.00 | 0.00 | 83 | 1017.1 |
| 20260510070516 | 8 | 52 | 11.3 | 22.5 | 0.00 | 0.00 | 0.00 | 83 | 1017.0 |
| 20260510070013 | 8 | 38 | 9.7 | 22.5 | 0.00 | 0.00 | 0.00 | 83 | 1017.0 |
| 20260510065512 | 8 | 63 | 8.0 | 22.5 | 0.00 | 0.00 | 0.00 | 84 | 1017.0 |
| 20260510065011 | 8 | 40 | 8.0 | 22.5 | 0.00 | 0.00 | 0.00 | 84 | 1017.0 |
| 20260510064510 | 8 | 360 | 6.4 | 25.7 | 0.00 | 0.00 | 0.00 | 84 | 1017.0 |
| 20260510064009 | 8 | 66 | 8.0 | 25.7 | 0.00 | 0.00 | 0.00 | 84 | 1017.0 |
| 20260510063511 | 8 | 52 | 9.7 | 25.7 | 0.00 | 0.00 | 0.00 | 83 | 1017.0 |
| 20260510063008 | 8 | 71 | 8.0 | 25.7 | 0.00 | 0.00 | 0.00 | 83 | 1016.9 |
| 20260510062508 | 8 | 42 | 8.0 | 22.5 | 0.00 | 0.00 | 0.00 | 83 | 1016.9 |
| 20260510062007 | 8 | 66 | 4.8 | 17.7 | 0.00 | 0.00 | 0.00 | 83 | 1016.7 |
| 20260510061507 | 8 | 39 | 6.4 | 17.7 | 0.00 | 0.00 | 0.00 | 83 | 1016.7 |
| 20260510061005 | 8 | 65 | 3.2 | 16.1 | 0.00 | 0.00 | 0.00 | 83 | 1016.8 |
| 20260510060505 | 8 | 32 | 4.8 | 20.9 | 0.00 | 0.00 | 0.00 | 83 | 1016.8 |
| 20260510060004 | 8 | 80 | 8.0 | 20.9 | 0.00 | 0.00 | 0.00 | 83 | 1016.7 |
| 20260510055503 | 8 | 59 | 6.4 | 29.0 | 0.00 | 0.00 | 0.00 | 83 | 1016.7 |
| 20260510055002 | 8 | 61 | 6.4 | 19.3 | 0.00 | 0.00 | 0.00 | 83 | 1016.7 |
| 20260510054505 | 8 | 51 | 6.4 | 22.5 | 0.00 | 0.00 | 0.00 | 83 | 1016.8 |
| 20260510054001 | 8 | 65 | 4.8 | 17.7 | 0.00 | 0.00 | 0.00 | 83 | 1016.7 |
| 20260510053502 | 8 | 77 | 6.4 | 16.1 | 0.00 | 0.00 | 0.00 | 83 | 1016.7 |
| 20260510053101 | 8 | 67 | 6.4 | 17.7 | 0.00 | 0.00 | 0.00 | 83 | 1016.7 |
| 20260510052602 | 8 | 57 | 6.4 | 19.3 | 0.00 | 0.00 | 0.00 | 83 | 1016.7 |
| 20260510052103 | 8 | 78 | 6.4 | 19.3 | 0.00 | 0.00 | 0.00 | 83 | 1016.8 |
| 20260510051559 | 8 | 38 | 6.4 | 16.1 | 0.00 | 0.00 | 0.00 | 84 | 1016.8 |
| 20260510051100 | 8 | 57 | 6.4 | 16.1 | 0.00 | 0.00 | 0.00 | 84 | 1017.0 |
| 20260510050558 | 8 | 76 | 1.6 | 12.9 | 0.00 | 0.00 | 0.00 | 84 | 1017.0 |
| 20260510045557 | 8 | 61 | 4.8 | 11.3 | 0.00 | 0.00 | 0.00 | 84 | 1017.0 |
| 20260510045057 | 8 | 64 | 4.8 | 16.1 | 0.00 | 0.00 | 0.00 | 84 | 1017.0 |
| 20260510044559 | 8 | 61 | 6.4 | 16.1 | 0.00 | 0.00 | 0.00 | 84 | 1017.0 |
| 20260510044056 | 8 | 64 | 6.4 | 16.1 | 0.00 | 0.00 | 0.00 | 84 | 1017.0 |
| 20260510043556 | 8 | 33 | 3.2 | 17.7 | 0.00 | 0.00 | 0.00 | 84 | 1016.9 |
| 20260510043058 | 8 | 38 | 4.8 | 19.3 | 0.00 | 0.00 | 0.00 | 83 | 1017.0 |
| 20260510042559 | 8 | 60 | 4.8 | 19.3 | 0.00 | 0.00 | 0.00 | 83 | 1016.9 |
| 20260510042055 | 8 | 34 | 6.4 | 17.7 | 0.00 | 0.00 | 0.00 | 83 | 1016.9 |
| 20260510041555 | 8 | 85 | 9.7 | 20.9 | 0.00 | 0.00 | 0.00 | 83 | 1016.9 |
| 20260510041055 | 8 | 70 | 8.0 | 22.5 | 0.00 | 0.00 | 0.00 | 83 | 1016.8 |
| 20260510040554 | 8 | 61 | 11.3 | 22.5 | 0.00 | 0.00 | 0.00 | 83 | 1016.8 |
| 20260510040059 | 8 | 65 | 9.7 | 22.5 | 0.00 | 0.00 | 0.00 | 84 | 1016.9 |
| 20260510035552 | 8 | 66 | 6.4 | 19.3 | 0.00 | 0.00 | 0.00 | 84 | 1016.7 |
| 20260510035052 | 8 | 94 | 9.7 | 19.3 | 0.00 | 0.00 | 0.00 | 84 | 1016.8 |
| 20260510034554 | 8 | 49 | 6.4 | 19.3 | 0.00 | 0.00 | 0.00 | 84 | 1016.8 |
| 20260510034051 | 8 | 44 | 4.8 | 20.9 | 0.00 | 0.00 | 0.00 | 84 | 1016.8 |
| 20260510033550 | 8 | 52 | 8.0 | 20.9 | 0.00 | 0.00 | 0.00 | 84 | 1016.9 |
| 20260510033111 | 8 | 59 | 4.8 | 17.7 | 0.00 | 0.00 | 0.00 | 84 | 1016.9 |
| 20260510032548 | 8 | 14 | 8.0 | 17.7 | 0.00 | 0.00 | 0.00 | 85 | 1016.9 |
| 20260510032054 | 8 | 36 | 4.8 | 16.1 | 0.00 | 0.00 | 0.00 | 85 | 1017.0 |
| 20260510031552 | 8 | 50 | 3.2 | 16.1 | 0.00 | 0.00 | 0.00 | 85 | 1017.1 |
| 20260510031046 | 8 | 44 | 8.0 | 16.1 | 0.00 | 0.00 | 0.00 | 85 | 1017.1 |
| 20260510030550 | 8 | 53 | 3.2 | 14.5 | 0.00 | 0.00 | 0.00 | 85 | 1017.2 |
| 20260510030049 | 8 | 38 | 3.2 | 14.5 | 0.00 | 0.00 | 0.00 | 85 | 1017.1 |
| 20260510025546 | 8 | 53 | 3.2 | 11.3 | 0.00 | 0.00 | 0.00 | 85 | 1017.3 |
| 20260510025046 | 8 | 51 | 4.8 | 20.9 | 0.00 | 0.00 | 0.00 | 85 | 1017.3 |
| 20260510024549 | 8 | 55 | 3.2 | 20.9 | 0.00 | 0.00 | 0.00 | 85 | 1017.3 |
| 20260510024146 | 8 | 105 | 6.4 | 16.1 | 0.00 | 0.00 | 0.00 | 85 | 1017.4 |
| 20260510023544 | 8 | 68 | 4.8 | 16.1 | 0.00 | 0.00 | 0.00 | 85 | 1017.3 |
| 20260510023045 | 8 | 32 | 4.8 | 16.1 | 0.00 | 0.00 | 0.00 | 85 | 1017.4 |
| 20260510022544 | 8 | 62 | 4.8 | 14.5 | 0.00 | 0.00 | 0.00 | 85 | 1017.3 |
| 20260510022044 | 8 | 68 | 4.8 | 14.5 | 0.00 | 0.00 | 0.00 | 85 | 1017.4 |
| 20260510021544 | 8 | 38 | 6.4 | 16.1 | 0.00 | 0.00 | 0.00 | 85 | 1017.4 |
| 20260510021043 | 8 | 61 | 4.8 | 16.1 | 0.00 | 0.00 | 0.00 | 85 | 1017.5 |
| 20260510020543 | 8 | 30 | 6.4 | 17.7 | 0.00 | 0.00 | 0.00 | 85 | 1017.5 |
| 20260510020045 | 8 | 63 | 4.8 | 22.5 | 0.00 | 0.00 | 0.00 | 85 | 1017.5 |
| 20260510015542 | 8 | 61 | 6.4 | 16.1 | 0.00 | 0.00 | 0.00 | 85 | 1017.4 |
| 20260510015041 | 8 | 57 | 6.4 | 16.1 | 0.00 | 0.00 | 0.00 | 85 | 1017.3 |
| 20260510014543 | 8 | 63 | 6.4 | 16.1 | 0.00 | 0.00 | 0.00 | 85 | 1017.4 |
| 20260510014041 | 8 | 47 | 3.2 | 20.9 | 0.00 | 0.00 | 0.00 | 84 | 1017.4 |
| 20260510013541 | 8 | 63 | 6.4 | 20.9 | 0.00 | 0.00 | 0.00 | 85 | 1017.4 |
| 20260510013041 | 8 | 53 | 4.8 | 22.5 | 0.00 | 0.00 | 0.00 | 85 | 1017.5 |
| 20260510012540 | 8 | 49 | 11.3 | 22.5 | 0.00 | 0.00 | 0.00 | 85 | 1017.6 |
| 20260510012040 | 8 | 58 | 6.4 | 19.3 | 0.00 | 0.00 | 0.00 | 85 | 1017.6 |
| 20260510011551 | 8 | 72 | 6.4 | 22.5 | 0.00 | 0.00 | 0.00 | 85 | 1017.6 |
| 20260510011038 | 8 | 39 | 6.4 | 22.5 | 0.00 | 0.00 | 0.00 | 85 | 1017.6 |
| 20260510010537 | 8 | 54 | 6.4 | 17.7 | 0.00 | 0.00 | 0.00 | 86 | 1017.6 |
| 20260510010037 | 8 | 63 | 4.8 | 17.7 | 0.00 | 0.00 | 0.00 | 86 | 1017.5 |
| 20260510005536 | 8 | 54 | 6.4 | 17.7 | 0.00 | 0.00 | 0.00 | 86 | 1017.5 |
| 20260510005038 | 8 | 13 | 4.8 | 16.1 | 0.00 | 0.00 | 0.00 | 86 | 1017.4 |
| 20260510004537 | 8 | 69 | 8.0 | 17.7 | 0.00 | 0.00 | 0.00 | 86 | 1017.3 |
| 20260510004035 | 8 | 68 | 6.4 | 17.7 | 0.00 | 0.00 | 0.00 | 86 | 1017.2 |
| 20260510003535 | 8 | 67 | 8.0 | 20.9 | 0.00 | 0.00 | 0.00 | 86 | 1017.2 |
| 20260510003058 | 8 | 68 | 6.4 | 20.9 | 0.00 | 0.00 | 0.00 | 86 | 1017.3 |
| 20260510002534 | 8 | 79 | 8.0 | 20.9 | 0.00 | 0.00 | 0.00 | 85 | 1017.2 |
| 20260510002034 | 8 | 63 | 8.0 | 17.7 | 0.00 | 0.00 | 0.00 | 85 | 1017.1 |
| 20260510001534 | 8 | 43 | 8.0 | 19.3 | 0.00 | 0.00 | 0.00 | 84 | 1017.2 |
| 20260510001032 | 8 | 60 | 6.4 | 19.3 | 0.00 | 0.00 | 0.00 | 84 | 1017.1 |
| 20260510000529 | 8 | 45 | 6.4 | 17.7 | 0.00 | 0.00 | 0.00 | 83 | 1017.1 |
| 20260510000030 | 8 | 67 | 8.0 | 17.7 | 0.00 | 0.00 | 0.00 | 83 | 1017.1 |
| 20260509235528 | 8 | 53 | 6.4 | 17.7 | 0.00 | 0.00 | 0.00 | 82 | 1017.2 |
| 20260509235027 | 8 | 70 | 6.4 | 16.1 | 0.00 | 0.00 | 0.00 | 82 | 1017.3 |
| 20260509234529 | 8 | 62 | 8.0 | 17.7 | 0.00 | 0.00 | 0.00 | 81 | 1017.2 |
| 20260509234025 | 8 | 56 | 8.0 | 17.7 | 0.00 | 0.00 | 0.00 | 80 | 1017.2 |
| 20260509233525 | 8 | 68 | 8.0 | 19.3 | 0.00 | 0.00 | 0.00 | 80 | 1017.3 |
| 20260509233024 | 8 | 61 | 8.0 | 19.3 | 0.00 | 0.00 | 0.00 | 79 | 1017.3 |
| 20260509232523 | 8 | 19 | 6.4 | 16.1 | 0.00 | 0.00 | 0.00 | 78 | 1017.3 |
| 20260509232024 | 9 | 49 | 6.4 | 17.7 | 0.00 | 0.00 | 0.00 | 77 | 1017.4 |
| 20260509231530 | 9 | 40 | 8.0 | 19.3 | 0.00 | 0.00 | 0.00 | 77 | 1017.4 |
| 20260509231024 | 9 | 71 | 4.8 | 19.3 | 0.00 | 0.00 | 0.00 | 76 | 1017.4 |
| 20260509230520 | 9 | 42 | 8.0 | 16.1 | 0.00 | 0.00 | 0.00 | 76 | 1017.4 |
| 20260509230025 | 9 | 76 | 6.4 | 16.1 | 0.00 | 0.00 | 0.00 | 75 | 1017.3 |
| 20260509225517 | 9 | 68 | 8.0 | 17.7 | 0.00 | 0.00 | 0.00 | 74 | 1017.3 |
| 20260509225016 | 10 | 55 | 8.0 | 17.7 | 0.00 | 0.00 | 0.00 | 74 | 1017.3 |
| 20260509224518 | 10 | 77 | 8.0 | 17.7 | 0.00 | 0.00 | 0.00 | 72 | 1017.2 |
| 20260509224016 | 10 | 42 | 6.4 | 16.1 | 0.00 | 0.00 | 0.00 | 70 | 1017.2 |
| 20260509223516 | 10 | 44 | 4.8 | 14.5 | 0.00 | 0.00 | 0.00 | 68 | 1017.1 |
| 20260509223016 | 10 | 50 | 4.8 | 17.7 | 0.00 | 0.00 | 0.00 | 67 | 1017.1 |
| 20260509222518 | 10 | 72 | 4.8 | 17.7 | 0.00 | 0.00 | 0.00 | 66 | 1017.2 |
| 20260509222015 | 10 | 59 | 3.2 | 14.5 | 0.00 | 0.00 | 0.00 | 64 | 1017.2 |
| 20260509221514 | 10 | 24 | 4.8 | 14.5 | 0.00 | 0.00 | 0.00 | 63 | 1017.1 |
| 20260509221014 | 10 | 45 | 4.8 | 12.9 | 0.00 | 0.00 | 0.00 | 62 | 1017.1 |
| 20260509220514 | 11 | 41 | 3.2 | 14.5 | 0.00 | 0.00 | 0.00 | 61 | 1017.1 |
| 20260509220013 | 11 | 57 | 4.8 | 17.7 | 0.00 | 0.00 | 0.00 | 60 | 1017.0 |
| 20260509215514 | 11 | 54 | 6.4 | 17.7 | 0.00 | 0.00 | 0.00 | 59 | 1016.9 |
| 20260509215013 | 11 | 77 | 8.0 | 17.7 | 0.00 | 0.00 | 0.00 | 58 | 1016.9 |
| 20260509214511 | 11 | 89 | 4.8 | 16.1 | 0.00 | 0.00 | 0.00 | 58 | 1016.9 |
| 20260509214011 | 11 | 15 | 4.8 | 19.3 | 0.00 | 0.00 | 0.00 | 57 | 1016.8 |
| 20260509213516 | 11 | 48 | 4.8 | 17.7 | 0.00 | 0.00 | 0.00 | 57 | 1016.9 |
| 20260509213012 | 11 | 31 | 6.4 | 16.1 | 0.00 | 0.00 | 0.00 | 56 | 1016.7 |
| 20260509212511 | 11 | 35 | 1.6 | 16.1 | 0.00 | 0.00 | 0.00 | 56 | 1016.7 |
| 20260509212013 | 11 | 60 | 6.4 | 16.1 | 0.00 | 0.00 | 0.00 | 55 | 1016.7 |
| 20260509211511 | 12 | 75 | 3.2 | 19.3 | 0.00 | 0.00 | 0.00 | 55 | 1016.5 |